Tracking 19280 objects as of 15-Nov-2018
HD Live streaming from Space Station
objects crossing your sky now

ORBCOMM FM 15

Track ORBCOMM FM 15 now!
10-day predictions
ORBCOMM FM 15 is classified as:


NORAD ID: 25418
Int'l Code: 1998-046F
Perigee: 786.6 km
Apogee: 792.5 km
Inclination: 45.0 °
Period: 100.5 minutes
Semi major axis: 7160 km
RCS: 0.6025 m2 (medium)
Launch date: August 2, 1998
Source: ORBCOMM (ORB)
Launch site: Pegasus launched from Eastern Range Air Space (ERAS)
aabbcc
Your satellite tracking list
Your tracking list is empty




NASA's NSSDC Master Catalog

Two Line Element Set (TLE):
1 25418U 98046F   18319.55195984  .00000089  00000-0  83321-4 0  9993
2 25418  45.0003 354.0480 0004136 206.8147 310.7022 14.32794923 59070
Source of the keplerian elements: AFSPC